Skip Page Navigation
NASA JPL Caltech
NASA Logo - Jet Propulsion Laboratory + View the NASA Portal
+ Center for Near-Earth Object Studies
JPL Home Earth Solar System Stars & Galaxies Technology
JPL Solar System Dynamics
BODIES ORBITS EPHEMERIDES TOOLS PHYSICAL DATA DISCOVERY FAQ SITE MAP
JPL Small-Body Database Browser
Search: [ help ]  
14790 Beletskij (1970 OF)
Classification: Main-belt Asteroid          SPK-ID: 2014790
Ephemeris | Orbit Diagram | Orbital Elements | Mission Design | Physical Parameters | Discovery Circumstances | Close-Approach Data ]

[ hide orbit diagram ]
Orbit Diagram
[ switch to new HTML5 viewer ]

Note: This Java-based orbit viewer will eventually be retired.

Note: Make sure you have Java enabled on your browser to see the applet. This applet is provided as a 3D orbit visualization tool. The applet was implemented using two-body methods, and hence should not be used for determining accurate long-term trajectories (over several years or decades) or planetary encounter circumstances. For accurate long-term ephemerides, please instead use our Horizons system.

Note: If the applet is not working, here are some notes that might help.
Orbit Viewer

Additional Notes: the orbits shown in the applet are color coded. The planets are white lines, and the asteroid/comet is a blue line. The bright white line indicates the portion of the orbit that is above the ecliptic plane, and the darker portion is below the ecliptic plane. Likewise for the asteroid/comet orbit, the light blue indicates the portion above the ecliptic plane, and the dark blue the portion below the ecliptic plane.

Orbit Viewer applet originally written and kindly provided by Osamu Ajiki (AstroArts), and further modified by Ron Baalke (JPL).


Orbital Elements at Epoch 2459000.5 (2020-May-31.0) TDB
Reference: JPL 26 (heliocentric ecliptic J2000)
 Element Value Uncertainty (1-sigma)   Units 
e .3112802805364531 4.1147e-08  
a 2.69745442681914 8.5725e-09 au
q 1.857790056104581 1.0821e-07 au
i 6.250179239462611 3.6539e-06 deg
node 321.1289655067941 3.8659e-05 deg
peri 31.5496494292073 3.9008e-05 deg
M 72.54464186580263 6.3986e-06 deg
tp 2458674.413783908254
(2019-Jul-09.91378391)
2.807e-05 TDB
period 1618.190327690713
4.43
7.7139e-06
2.112e-08
d
yr
n .2224707402087546 1.0605e-09 deg/d
Q 3.5371187975337 1.1241e-08 au
  Orbit Determination Parameters
   # obs. used (total)      2067  
   data-arc span      18316 days (50.15 yr)  
   first obs. used      1970-07-30  
   last obs. used      2020-09-21  
   planetary ephem.      DE431  
   SB-pert. ephem.      SB431-N16  
   condition code      0  
   norm. resid. RMS      .4835  
   source      ORB  
   producer      Otto Matic  
   solution date      2020-Oct-22 16:39:00  

Additional Information
 Earth MOID = .855517 au 
 Jupiter MOID = 1.92761 au 
 T_jup = 3.289 
[ show covariance matrix ]

Ephemeris | Orbit Diagram | Orbital Elements | Mission Design | Physical Parameters | Discovery Circumstances | Close-Approach Data ]

Physical Parameter Table
Parameter Symbol Value Units Sigma Reference Notes
absolute magnitude H 13.4   n/a MPO350921  
diameter diameter 10.184 km 0.080 urn:nasa:pds:neowise_diameters_albedos::2.0[mainbelt] (http://adsabs.harvard.edu/abs/2014ApJ...791..121M)  
rotation period rot_per 3.146 h n/a LCDB (Rev. 2019-August); Warner et al., 2009 Published Reference List:
[Durkee, R.I. (2011) Minor Planet Bull. 38, 39-40.]
[Pligge, Z.; Hall, B.; Ditteon, R. (2011) Minor Planet Bull. 38, 137-138.]
geometric albedo albedo 0.217   0.012 urn:nasa:pds:neowise_diameters_albedos::2.0[mainbelt] (http://adsabs.harvard.edu/abs/2012ApJ...759L...8M)  

14790 Beletskij           Discovered 1970 July 30 by T. M. Smirnova at the Crimean Astrophysical Observatory.
Vladimir Vasil'evich Beletskij (b. 1930), a corresponding member of the Russian Academy of Sciences and professor of Moscow University, is a prominent expert in celestial mechanics and spaceflight theory. He developed a nonlinear theory for the rotation and orientation of natural celestial bodies and artificial satellites.
NOTE: some special characters may not display properly (any characters within {} are an attempt to place the proper accent above a character)
Reference: 20011230/MPCPages.arcLast Updated: 2009-05-11

[ hide close-approach data ]
Close-Approach Data   ...sorted by Date/Time (TDB)
Date/Time (TDB) Time Uncertainty
(days_HH:MM)
Body Nominal Distance (au) Minimum Distance (au) Maximum Distance (au) V-relative (km/s) V-infinity (km/s) JD (TDB) Time Uncertainty (minutes) Semi-major axis (km) Semi-minor axis (km) range-LOV angle (deg) N-sigma BP Orbit Ref. Reference Modified
1933-Jan-29 09:19 00:01 Jupiter 1.90579162512327 1.90579120127269 1.90579204897386 1.6041449689641 1.29783973521393 2427101.888344827 1.12449394493243 2222.34950356624 61.5618263208426 87.8483076199877 2992320.33658987 T 26 CATAB v2.0f-lin.ifort 2020-Oct-22 16:39:17 2020-Oct-22 16:39
1968-May-08 11:38 < 00:01 Jupiter 1.91365840767455 1.91365809007899 1.91365872534801 1.7400409293882 1.46372929472756 2439984.984642536 0.635024985518617 1008.78029564564 52.2475769431145 -87.7228793777352 2110384.89290134 T 26 CATAB v2.0f-lin.ifort 2020-Oct-22 16:39:17 2020-Oct-22 16:39
2003-Aug-13 12:13 < 00:01 Jupiter 1.9558663823164 1.9558660523073 1.95586671233196 1.90796527322531 1.66559182413392 2452865.009030080 0.210648114230144 409.311827901203 26.6163641765395 -85.5500008371829 2441244.82201097 T 26 CATAB v2.0f-lin.ifort 2020-Oct-22 16:39:17 2020-Oct-22 16:39
2159-Jan-06 23:08 00:02 Jupiter 1.95976523461145 1.95976470838123 1.95976576088345 1.25866310804848 0.848422413759242 2509624.463913248 1.84655241233316 831.340185692673 425.684377240427 75.981146896676 1208355.98351189 T 26 CATAB v2.0f-lin.ifort 2020-Oct-22 16:39:17 2020-Oct-22 16:39
2194-Apr-12 03:41 00:02 Jupiter 1.92537994131778 1.92537960134554 1.9253802814798 1.39801672332194 1.036629646229 2522503.653264912 2.26708010993819 1907.45471730205 267.548029370813 86.8423620283128 1158099.16228782 T 26 CATAB v2.0f-lin.ifort 2020-Oct-22 16:39:17 2020-Oct-22 16:39

Alternate Designations
 1970 OF = 1939 PD = 1979 QV8 = A917 SC 
Ephemeris | Orbit Diagram | Orbital Elements | Mission Design | Physical Parameters | Discovery Circumstances | Close-Approach Data ]
ABOUT SSD CREDITS/AWARDS PRIVACY/COPYRIGHT GLOSSARY LINKS
FirstGov 2020-Oct-25 08:20 UT
(server date/time)  
NASA Home Page
Site Manager:   Ryan S. Park
Webmaster  Alan B. Chamberlin